Zurück zum Katalog

GAOFEN 11

AktivWissenschaftSSO
NORAD 43585·PAYLOAD·🇨🇳 China

Gestartet Jul 31, 2018 von Taiyuan Satellite Launch Center

Loading…

Nächste Überflüge (nächste 24 Stunden)

TLE

AktuellSource: Space-Track

Epoche: Sep 14, 2026, 11:17 UTC

1 43585U 18063A   26257.47075793  .00015722  00000-0  21339-3 0  9995
2 43585  97.1192 324.2037 0003870  26.7070 333.4385 15.57709999454235

Verfolge GAOFEN 11 in Echtzeit mit AllMySat

Download on the App Store